FW9633 Weather Reports


Display with metric or nautical units.
time (UTC)temp
F
wind
direction
speed
MPH
gust
MPH
rain 1hr
in
rain 24hr
in
rain mn
in
humidity
%
barometer
mb
20260504100303 45 148 1.0 5.0 0.00 0.00 0.00 70 1010.8
20260504081657 44 209 0.0 2.0 0.00 0.00 0.00 71 1011.7
20260504081153 44 288 2.0 3.0 0.00 0.00 0.00 70 1011.8
20260504080649 44 215 0.0 3.0 0.00 0.00 0.00 70 1011.8
20260504080146 44 192 0.0 4.0 0.00 0.00 0.00 70 1011.7
20260504070114 45 249 1.0 5.0 0.00 0.00 0.00 68 1012.4
20260504050502 47 187 2.0 4.0 0.00 0.00 0.00 60 1013.0
20260504045959 47 233 2.0 7.0 0.00 0.00 0.00 59 1013.1
20260504045455 47 180 3.0 8.0 0.00 0.00 0.00 60 1013.0
20260504044951 46 215 3.0 12.0 0.00 0.00 0.00 62 1013.3
20260504044449 46 281 3.0 4.0 0.00 0.00 0.00 63 1013.2
20260504043946 46 209 0.0 3.0 0.00 0.00 0.00 61 1013.0
20260504043443 46 225 2.0 3.0 0.00 0.00 0.00 62 1013.3
20260504042941 47 217 0.0 7.0 0.00 0.00 0.00 61 1013.1
20260504042437 47 286 0.0 3.0 0.00 0.00 0.00 61 1013.0
20260504041934 47 187 0.0 2.0 0.00 0.00 0.00 61 1013.4
20260504041430 47 189 4.0 5.0 0.00 0.00 0.00 61 1013.0
20260504040926 47 195 0.0 5.0 0.00 0.00 0.00 61 1013.2
20260504040424 47 221 2.0 5.0 0.00 0.00 0.00 61 1013.3
20260504035919 47 219 4.0 7.0 0.00 0.00 0.00 61 1013.2
20260504035417 47 172 0.0 3.0 0.00 0.00 0.00 62 1013.2
20260504034914 47 219 3.0 3.0 0.00 0.00 0.00 62 1013.4
20260504034411 48 233 3.0 6.0 0.00 0.00 0.00 61 1013.4
20260504033908 48 215 6.0 6.0 0.00 0.00 0.00 60 1013.4
20260504033406 48 219 3.0 4.0 0.00 0.00 0.00 59 1013.2
20260504032903 48 243 0.0 5.0 0.00 0.00 0.00 60 1013.2
20260504032359 48 198 3.0 5.0 0.00 0.00 0.00 60 1013.3
20260504031856 48 233 8.0 8.0 0.00 0.00 0.00 59 1013.4
20260504031353 48 270 5.0 5.0 0.00 0.00 0.00 59 1013.2
20260504030849 48 216 3.0 3.0 0.00 0.00 0.00 60 1013.3
20260504030347 48 180 0.0 4.0 0.00 0.00 0.00 60 1013.3
20260504025843 48 249 0.0 5.0 0.00 0.00 0.00 59 1013.5
20260504025340 48 240 2.0 5.0 0.00 0.00 0.00 59 1013.5
20260504024837 48 180 0.0 5.0 0.00 0.00 0.00 60 1013.4
20260504024333 48 260 3.0 3.0 0.00 0.00 0.00 59 1013.5
20260504023830 49 233 5.0 5.0 0.00 0.00 0.00 57 1013.7
20260504023327 49 225 2.0 7.0 0.00 0.00 0.00 57 1013.1
20260504022822 49 301 2.0 3.0 0.00 0.00 0.00 58 1013.7
20260504022320 49 312 2.0 5.0 0.00 0.00 0.00 58 1013.5
20260504021816 49 332 2.0 5.0 0.00 0.00 0.00 57 1013.7
20260504021314 49 241 0.0 5.0 0.00 0.00 0.00 57 1013.4
20260504020811 49 213 2.0 7.0 0.00 0.00 0.00 57 1013.5
20260504020307 48 172 2.0 4.0 0.00 0.00 0.00 58 1013.5
20260504015803 48 151 1.0 1.0 0.00 0.00 0.00 58 1013.3
20260504015300 49 212 0.0 2.0 0.00 0.00 0.00 57 1013.2
20260504014755 49 279 2.0 2.0 0.00 0.00 0.00 58 1013.3
20260504014252 50 180 2.0 3.0 0.00 0.00 0.00 56 1013.5
20260504013750 50 183 3.0 6.0 0.00 0.00 0.00 54 1013.2
20260504013247 50 248 3.0 6.0 0.00 0.00 0.00 55 1013.4
20260504012743 50 257 2.0 4.0 0.00 0.00 0.00 56 1013.2
20260504012242 50 257 1.0 3.0 0.00 0.00 0.00 55 1013.2
20260504011738 50 239 2.0 8.0 0.00 0.00 0.00 54 1013.1
20260504011235 50 243 2.0 4.0 0.00 0.00 0.00 54 1013.2
20260504010731 50 229 0.0 2.0 0.00 0.00 0.00 55 1013.4
20260504010227 51 206 0.0 2.0 0.00 0.00 0.00 53 1013.3
20260504005724 51 213 4.0 6.0 0.00 0.00 0.00 52 1013.3
20260504005221 51 312 0.0 4.0 0.00 0.00 0.00 53 1013.3
20260504004718 51 233 3.0 6.0 0.00 0.00 0.00 52 1013.2
20260504004215 51 263 1.0 6.0 0.00 0.00 0.00 51 1013.2
20260504003712 51 213 0.0 4.0 0.00 0.00 0.00 52 1013.0
20260504003209 52 245 3.0 6.0 0.00 0.00 0.00 51 1013.2
20260504002705 52 270 2.0 11.0 0.00 0.00 0.00 50 1013.3
20260504002203 52 206 4.0 8.0 0.00 0.00 0.00 50 1013.2
20260504001701 52 226 5.0 5.0 0.00 0.00 0.00 50 1013.0
20260504001156 53 210 7.0 9.0 0.00 0.00 0.00 49 1013.0
20260504000648 53 233 3.0 8.0 0.00 0.00 0.00 48 1012.9
20260504000145 53 215 6.0 8.0 0.00 0.00 0.00 48 1012.9
20260503235643 53 228 2.0 6.0 0.00 0.00 0.00 49 1012.9
20260503235140 53 183 4.0 6.0 0.00 0.00 0.00 48 1013.1
20260503234638 54 168 2.0 15.0 0.00 0.00 0.00 47 1013.0
20260503234136 53 188 5.0 11.0 0.00 0.00 0.00 48 1013.1
20260503233632 54 225 2.0 9.0 0.00 0.00 0.00 48 1013.1
20260503233128 54 287 3.0 10.0 0.00 0.00 0.00 48 1013.0
20260503232625 54 322 3.0 9.0 0.00 0.00 0.00 47 1013.0
20260503232123 54 270 7.0 7.0 0.00 0.00 0.00 47 1013.0
20260503231620 54 322 2.0 11.0 0.00 0.00 0.00 46 1013.2
20260503231117 54 228 5.0 11.0 0.00 0.00 0.00 47 1012.9
20260503230614 54 251 3.0 8.0 0.00 0.00 0.00 47 1013.0
20260503230111 54 307 3.0 13.0 0.00 0.00 0.00 47 1013.0
20260503225608 54 231 6.0 12.0 0.00 0.00 0.00 46 1012.9
20260503225102 54 221 10.0 16.0 0.00 0.00 0.00 45 1013.0
20260503224600 54 217 13.0 15.0 0.00 0.00 0.00 45 1013.1
20260503224058 55 226 4.0 5.0 0.00 0.00 0.00 46 1013.2
20260503223555 55 250 5.0 13.0 0.00 0.00 0.00 45 1013.0
20260503223050 55 214 5.0 18.0 0.00 0.00 0.00 45 1012.9
20260503222549 55 237 5.0 11.0 0.00 0.00 0.00 45 1013.0
20260503222047 55 235 12.0 13.0 0.00 0.00 0.00 45 1013.0
20260503221544 55 270 5.0 7.0 0.00 0.00 0.00 46 1012.9
20260503221042 55 319 2.0 12.0 0.00 0.00 0.00 45 1012.7
20260503220538 56 281 3.0 10.0 0.00 0.00 0.00 45 1013.1
20260503220035 55 305 2.0 12.0 0.00 0.00 0.00 46 1013.1
20260503215532 55 194 7.0 17.0 0.00 0.00 0.00 44 1013.0
20260503215029 56 217 0.0 11.0 0.00 0.00 0.00 44 1013.0
20260503214527 56 285 14.0 14.0 0.00 0.00 0.00 43 1012.9
20260503214023 55 162 1.0 8.0 0.00 0.00 0.00 47 1013.0
20260503213522 55 212 5.0 17.0 0.00 0.00 0.00 45 1012.9
20260503213018 57 213 10.0 14.0 0.00 0.00 0.00 43 1012.8
20260503212516 58 249 0.0 8.0 0.00 0.00 0.00 44 1013.0
20260503212013 56 239 6.0 17.0 0.00 0.00 0.00 44 1013.0
20260503211510 58 185 1.0 10.0 0.00 0.00 0.00 43 1013.2
20260503211010 57 229 3.0 9.0 0.00 0.00 0.00 45 1013.0
20260503210508 55 205 5.0 11.0 0.00 0.00 0.00 46 1013.0
20260503210005 56 294 2.0 7.0 0.00 0.00 0.00 46 1012.9
20260503205501 56 216 2.0 7.0 0.00 0.00 0.00 43 1013.0
20260503204956 57 246 3.0 9.0 0.00 0.00 0.00 45 1013.0
20260503204454 56 263 1.0 10.0 0.00 0.00 0.00 43 1013.0
20260503203950 57 319 5.0 9.0 0.00 0.00 0.00 43 1013.1
20260503203448 57 255 4.0 10.0 0.00 0.00 0.00 44 1013.1
20260503202945 56 222 9.0 11.0 0.00 0.00 0.00 45 1013.0
20260503202443 56 235 8.0 14.0 0.00 0.00 0.00 44 1013.2
20260503201941 54 234 9.0 12.0 0.00 0.00 0.00 45 1013.5
20260503201438 54 265 7.0 17.0 0.00 0.00 0.00 45 1013.7
20260503200935 56 248 3.0 17.0 0.00 0.00 0.00 43 1013.4
20260503200432 56 178 4.0 19.0 0.00 0.00 0.00 44 1013.5
20260503195928 56 225 4.0 13.0 0.00 0.00 0.00 46 1013.7
20260503195426 54 209 5.0 10.0 0.00 0.00 0.00 47 1013.7
20260503194922 54 262 6.0 11.0 0.00 0.00 0.00 45 1013.8
20260503194419 54 283 3.0 13.0 0.00 0.00 0.00 46 1013.8
20260503193914 54 257 10.0 19.0 0.00 0.00 0.00 47 1013.9
20260503193409 54 251 3.0 14.0 0.00 0.00 0.00 44 1014.0
20260503192905 56 214 4.0 5.0 0.00 0.00 0.00 47 1014.0
20260503192401 55 202 4.0 11.0 0.00 0.00 0.00 45 1014.1
20260503191858 54 172 4.0 11.0 0.00 0.00 0.00 45 1014.4
20260503191355 54 270 0.0 9.0 0.00 0.00 0.00 46 1014.4
20260503190852 55 268 5.0 11.0 0.00 0.00 0.00 44 1014.3
20260503190349 57 276 5.0 11.0 0.00 0.00 0.00 45 1014.4
20260503185846 55 233 13.0 20.0 0.00 0.00 0.00 44 1014.2
20260503185343 55 255 7.0 13.0 0.00 0.00 0.00 44 1014.4
20260503184842 55 291 1.0 9.0 0.00 0.00 0.00 47 1014.5
20260503184339 54 172 2.0 11.0 0.00 0.00 0.00 47 1014.6
20260503183835 55 270 0.0 10.0 0.00 0.00 0.00 47 1014.7
20260503183332 56 245 5.0 8.0 0.00 0.00 0.00 45 1014.6
20260503182829 56 251 5.0 8.0 0.00 0.00 0.00 45 1014.8
20260503182328 54 220 3.0 9.0 0.00 0.00 0.00 46 1014.8
20260503181825 53 194 8.0 15.0 0.00 0.00 0.00 45 1014.6
20260503181322 54 225 4.0 11.0 0.00 0.00 0.00 43 1015.0
20260503180818 56 217 4.0 10.0 0.00 0.00 0.00 47 1015.0
20260503180317 55 251 3.0 8.0 0.00 0.00 0.00 47 1015.0
20260503175813 53 311 3.0 15.0 0.00 0.00 0.00 47 1015.2
20260503175311 54 247 5.0 14.0 0.00 0.00 0.00 46 1015.0
20260503174806 53 266 11.0 19.0 0.00 0.00 0.00 47 1015.0
20260503174304 52 197 11.0 11.0 0.00 0.00 0.00 47 1015.1
20260503173800 52 287 4.0 13.0 0.00 0.00 0.00 49 1015.2
20260503173255 52 193 6.0 10.0 0.00 0.00 0.00 46 1015.3
20260503172753 52 180 2.0 8.0 0.00 0.00 0.00 49 1015.1
20260503172250 51 227 11.0 21.0 0.00 0.00 0.00 46 1015.3
20260503171746 53 305 4.0 19.0 0.00 0.00 0.00 47 1015.3
20260503171244 53 240 5.0 13.0 0.00 0.00 0.00 45 1015.3
20260503170740 53 203 6.0 11.0 0.00 0.00 0.00 49 1015.2
20260503170237 52 253 5.0 7.0 0.00 0.00 0.00 47 1015.3
20260503160159 51 301 2.0 9.0 0.00 0.00 0.00 46 1016.0
20260503150629 46 207 4.0 14.0 0.00 0.00 0.00 47 1016.0
20260503150125 48 270 3.0 10.0 0.00 0.00 0.00 48 1016.4
20260503131019 42 253 5.0 7.0 0.00 0.00 0.00 70 1016.6
20260503130517 42 332 2.0 5.0 0.00 0.00 0.00 71 1016.4
20260503110407 31 192 0.0 3.0 0.00 0.00 0.00 91 1016.2